FW3082 Weather Reports


Display with metric or nautical units.
time (UTC)temp
F
wind
direction
speed
MPH
gust
MPH
rain 1hr
in
rain 24hr
in
rain mn
in
humidity
%
barometer
mb
20191023112121 56 334 0.0 2.0 0.00 0.00 0.00 57 1011.8
20191023111121 54 344 0.0 1.0 0.00 0.00 0.00 61 1011.8
20191023110152 54 344 0.0 2.0 0.00 0.00 0.00 62 1012.0
20191023105121 54 344 2.0 2.0 0.00 0.00 0.00 62 1012.2
20191023104120 54 344 0.0 1.0 0.00 0.00 0.00 61 1012.3
20191023103121 54 344 0.0 1.0 0.00 0.00 0.00 62 1012.3
20191023102120 54 344 1.0 2.0 0.00 0.00 0.00 61 1012.4
20191023101120 54 344 0.0 2.0 0.00 0.00 0.00 62 1012.5
20191023100150 55 344 1.0 2.0 0.00 0.00 0.00 61 1012.6
20191023095120 55 344 0.0 2.0 0.00 0.00 0.00 61 1012.7
20191023094119 54 344 0.0 1.0 0.00 0.00 0.00 61 1012.7
20191023093119 55 344 0.0 1.0 0.00 0.00 0.00 63 1012.9
20191023092119 54 344 0.0 1.0 0.00 0.00 0.00 64 1013.2
20191023091119 54 344 0.0 2.0 0.00 0.00 0.00 63 1013.2
20191023090148 54 344 0.0 1.0 0.00 0.00 0.00 63 1013.2
20191023085118 55 344 1.0 2.0 0.00 0.00 0.00 61 1013.3
20191023084118 55 344 0.0 2.0 0.00 0.00 0.00 61 1013.4
20191023083118 56 343 1.0 3.0 0.00 0.00 0.00 63 1013.5
20191023082118 56 344 2.0 2.0 0.00 0.00 0.00 62 1013.4
20191023081117 57 344 0.0 3.0 0.00 0.00 0.00 61 1013.5
20191023080147 55 344 0.0 3.0 0.00 0.00 0.00 64 1013.6
20191023075117 56 5 0.0 2.0 0.00 0.00 0.00 63 1013.7
20191023074116 56 5 0.0 1.0 0.00 0.00 0.00 62 1013.7
20191023073116 57 5 1.0 3.0 0.00 0.00 0.00 62 1013.8
20191023072116 57 360 2.0 3.0 0.00 0.00 0.00 62 1014.0
20191023071116 58 360 0.0 3.0 0.00 0.00 0.00 62 1014.0
20191023070146 59 345 2.0 4.0 0.00 0.00 0.00 58 1014.0
20191023065115 57 360 2.0 3.0 0.00 0.00 0.00 66 1014.1
20191023064145 57 339 2.0 3.0 0.00 0.00 0.00 67 1014.2
20191023063115 57 338 0.0 2.0 0.00 0.00 0.00 68 1014.3
20191023062115 58 338 0.0 1.0 0.00 0.00 0.00 67 1014.2
20191023061115 58 338 0.0 2.0 0.00 0.00 0.00 66 1014.1
20191023060144 58 11 1.0 2.0 0.00 0.00 0.00 65 1014.2
20191023055144 58 56 1.0 2.0 0.00 0.00 0.00 68 1014.1
20191023054144 59 343 1.0 3.0 0.00 0.00 0.00 68 1014.2
20191023053144 59 332 0.0 2.0 0.00 0.00 0.00 69 1014.0
20191023052143 59 331 1.0 2.0 0.00 0.00 0.00 69 1014.2
20191023051143 60 13 0.0 2.0 0.00 0.00 0.00 69 1014.1
20191023050143 60 63 1.0 2.0 0.00 0.00 0.00 69 1014.1
20191023045143 61 351 2.0 2.0 0.00 0.00 0.00 69 1014.1
20191023044143 61 349 2.0 2.0 0.00 0.00 0.00 68 1014.1
20191023043142 62 325 1.0 3.0 0.00 0.00 0.00 66 1014.0
20191023042142 63 329 1.0 3.0 0.00 0.00 0.00 66 1014.0
20191023041142 63 165 0.0 4.0 0.00 0.00 0.00 66 1013.9
20191023040142 62 51 1.0 2.0 0.00 0.00 0.00 64 1013.9
20191023035141 63 333 0.0 3.0 0.00 0.00 0.00 61 1013.8
20191023034348 63 355 0.0 1.0 0.00 0.00 0.00 64 1013.9
20191023032140 64 360 0.0 4.0 0.00 0.00 0.00 64 1013.9
20191023031140 64 11 0.0 2.0 0.00 0.00 0.00 65 1013.9
20191023030140 64 9 0.0 2.0 0.00 0.00 0.00 64 1013.8
20191023025140 65 5 0.0 3.0 0.00 0.00 0.00 64 1013.8
20191023024140 66 5 1.0 4.0 0.00 0.00 0.00 62 1013.8
20191023023139 66 346 0.0 4.0 0.00 0.00 0.00 60 1013.7
20191023022139 67 336 2.0 3.0 0.00 0.00 0.00 60 1013.7
20191023021139 68 279 3.0 6.0 0.00 0.00 0.00 58 1013.8
20191023020138 68 258 3.0 3.0 0.00 0.00 0.00 57 1013.8
20191023015138 69 355 0.0 3.0 0.00 0.00 0.00 56 1013.7
20191023014138 70 355 1.0 4.0 0.00 0.00 0.00 54 1013.6
20191023013138 72 348 0.0 3.0 0.00 0.00 0.00 52 1013.8
20191023012137 73 283 0.0 2.0 0.00 0.00 0.00 51 1013.7
20191023011137 75 229 0.0 2.0 0.00 0.00 0.00 47 1013.6
20191023010137 76 119 0.0 1.0 0.00 0.00 0.00 45 1013.6
20191023005137 77 116 0.0 2.0 0.00 0.00 0.00 43 1013.7
20191023004137 77 107 1.0 2.0 0.00 0.00 0.00 42 1013.8
20191023003136 78 182 0.0 2.0 0.00 0.00 0.00 41 1013.9
20191023002136 80 198 0.0 3.0 0.00 0.00 0.00 36 1013.9
20191023001136 81 176 1.0 3.0 0.00 0.00 0.00 33 1014.0
20191023000136 82 155 0.0 3.0 0.00 0.00 0.00 29 1014.0
20191022235136 82 174 1.0 3.0 0.00 0.00 0.00 28 1014.2
20191022234135 83 191 1.0 5.0 0.00 0.00 0.00 27 1014.3
20191022233135 85 173 1.0 4.0 0.00 0.00 0.00 26 1014.2
20191022232135 87 182 0.0 5.0 0.00 0.00 0.00 22 1014.4
20191022231134 88 196 1.0 4.0 0.00 0.00 0.00 21 1014.6
20191022230134 88 169 1.0 5.0 0.00 0.00 0.00 20 1014.6
20191022225134 89 105 3.0 3.0 0.00 0.00 0.00 19 1014.7
20191022224134 89 105 2.0 4.0 0.00 0.00 0.00 19 1014.8
20191022223134 90 115 1.0 3.0 0.00 0.00 0.00 18 1014.9
20191022222133 91 101 1.0 4.0 0.00 0.00 0.00 17 1015.0
20191022221133 90 175 2.0 7.0 0.00 0.00 0.00 17 1015.2
20191022220133 91 187 4.0 7.0 0.00 0.00 0.00 17 1015.3
20191022215133 91 186 2.0 7.0 0.00 0.00 0.00 17 1015.3
20191022214133 91 122 3.0 7.0 0.00 0.00 0.00 17 1015.3
20191022213132 91 182 2.0 6.0 0.00 0.00 0.00 17 1015.3
20191022212132 91 196 3.0 5.0 0.00 0.00 0.00 16 1015.5
20191022211132 91 124 1.0 7.0 0.00 0.00 0.00 18 1015.6
20191022210131 91 171 1.0 7.0 0.00 0.00 0.00 17 1015.7
20191022205131 91 94 1.0 5.0 0.00 0.00 0.00 18 1015.9
20191022204131 90 119 2.0 6.0 0.00 0.00 0.00 17 1016.2
20191022203131 90 153 1.0 6.0 0.00 0.00 0.00 18 1016.2
20191022202130 89 192 1.0 5.0 0.00 0.00 0.00 18 1016.5
20191022201130 88 183 2.0 6.0 0.00 0.00 0.00 19 1016.7
20191022200130 88 200 1.0 6.0 0.00 0.00 0.00 19 1016.9
20191022195130 89 129 2.0 6.0 0.00 0.00 0.00 20 1017.1
20191022194130 88 163 2.0 6.0 0.00 0.00 0.00 21 1017.2
20191022193129 87 105 2.0 5.0 0.00 0.00 0.00 22 1017.4
20191022192130 86 175 1.0 6.0 0.00 0.00 0.00 26 1017.5
20191022191129 86 186 1.0 6.0 0.00 0.00 0.00 28 1017.5
20191022190129 87 146 1.0 5.0 0.00 0.00 0.00 28 1017.7
20191022185129 87 146 0.0 5.0 0.00 0.00 0.00 27 1017.9
20191022184128 87 187 1.0 5.0 0.00 0.00 0.00 21 1017.9
20191022183129 87 194 1.0 5.0 0.00 0.00 0.00 21 1017.9
20191022182128 86 213 0.0 5.0 0.00 0.00 0.00 21 1018.0
20191022181128 87 188 2.0 5.0 0.00 0.00 0.00 22 1017.9
20191022180128 87 200 1.0 6.0 0.00 0.00 0.00 24 1017.9
20191022175128 86 183 1.0 4.0 0.00 0.00 0.00 25 1017.7
20191022174127 85 130 1.0 3.0 0.00 0.00 0.00 28 1017.9
20191022173127 84 197 0.0 3.0 0.00 0.00 0.00 29 1017.9
20191022172127 82 192 2.0 3.0 0.00 0.00 0.00 28 1018.1
20191022171127 82 125 0.0 2.0 0.00 0.00 0.00 28 1018.1
20191022170127 82 96 0.0 2.0 0.00 0.00 0.00 27 1018.2
20191022165127 80 38 0.0 1.0 0.00 0.00 0.00 35 1018.2
20191022164126 78 38 0.0 1.0 0.00 0.00 0.00 38 1018.3
20191022163126 76 38 0.0 2.0 0.00 0.00 0.00 41 1018.2
20191022162126 75 33 0.0 2.0 0.00 0.00 0.00 45 1018.2
20191022161125 73 33 0.0 1.0 0.00 0.00 0.00 48 1018.1
20191022160125 71 32 0.0 1.0 0.00 0.00 0.00 51 1018.1
20191022155125 69 32 0.0 2.0 0.00 0.00 0.00 54 1017.9
20191022154125 67 32 0.0 2.0 0.00 0.00 0.00 56 1017.8
20191022153125 65 36 0.0 2.0 0.00 0.00 0.00 57 1017.9
20191022152124 62 76 1.0 1.0 0.00 0.00 0.00 60 1017.9
20191022151124 61 343 1.0 2.0 0.00 0.00 0.00 62 1017.5
20191022150124 59 343 0.0 2.0 0.00 0.00 0.00 63 1017.6
20191022145124 57 343 1.0 1.0 0.00 0.00 0.00 65 1017.5
20191022144124 56 343 0.0 2.0 0.00 0.00 0.00 65 1017.3
20191022143123 57 343 1.0 2.0 0.00 0.00 0.00 63 1017.4
20191022142124 56 342 0.0 2.0 0.00 0.00 0.00 65 1017.3
20191022141123 56 342 2.0 2.0 0.00 0.00 0.00 66 1017.2
20191022140123 56 342 0.0 1.0 0.00 0.00 0.00 67 1017.2
20191022135123 56 342 0.0 3.0 0.00 0.00 0.00 65 1017.1
20191022134123 56 342 0.0 1.0 0.00 0.00 0.00 67 1017.1
20191022133122 56 342 1.0 1.0 0.00 0.00 0.00 68 1017.1
20191022132122 57 342 0.0 1.0 0.00 0.00 0.00 64 1017.0
20191022131122 58 342 0.0 0.0 0.00 0.00 0.00 62 1016.8
20191022130122 60 342 0.0 2.0 0.00 0.00 0.00 57 1016.7
20191022125121 59 342 0.0 3.0 0.00 0.00 0.00 58 1016.7
20191022124121 58 5 0.0 2.0 0.00 0.00 0.00 61 1016.7
20191022123121 57 5 1.0 2.0 0.00 0.00 0.00 65 1016.8
20191022122121 57 5 1.0 1.0 0.00 0.00 0.00 64 1016.9
20191022121120 58 5 0.0 2.0 0.00 0.00 0.00 62 1016.9
20191022120120 58 9 0.0 1.0 0.00 0.00 0.00 63 1016.7
20191022115120 59 5 0.0 2.0 0.00 0.00 0.00 58 1016.6
20191022114120 60 5 2.0 2.0 0.00 0.00 0.00 57 1016.4
20191022113120 59 50 1.0 2.0 0.00 0.00 0.00 59 1016.6